Terminal Aerodrome Forecast
Issued by NWS

Home | Current Version | Previous Version | Text Only | Print | Product List | Glossary On
Versions: 1 2 3 4 5 6 7 8 9 10 11 12 13 14 15 16 17 18 19 20 21 22 23 24 25 26 27 28 29 30 31 32 33 34
000
FTUS46 KOTX 192323
TAFSFF
TAF
KSFF 192323Z 2000/2024 23005KT P6SM BKN020 BKN080
     FM200200 23003KT P6SM BKN025 BKN150
     FM200600 10003KT P6SM OVC010
     FM201500 13005KT 4SM -RA BR OVC008
     FM201900 17005KT 4SM -RA BR OVC015=

USA.gov is the U.S. government's official web portal to all federal, state and local government web resources and services.